Time,TemperatureF,DewpointF,PressureIn,WindDirection,WindDirectionDegrees,WindSpeedMPH,WindSpeedGustMPH,Humidity,HourlyPrecipIn,Conditions,Clouds,dailyrainin,SoftwareType,DateUTC
2013-05-17 00:10:00,65.9,62.0,29.95,SE,140,0.0,0.0,86,0.00,,,0.00,weatherlink.com 1.10,2013-05-17 04:10:00,
2013-05-17 00:25:00,65.4,61.0,29.95,SE,140,0.0,0.0,86,0.00,,,0.00,weatherlink.com 1.10,2013-05-17 04:25:00,
2013-05-17 00:40:00,64.8,61.0,30.01,SE,140,0.0,0.0,87,0.00,,,0.00,weatherlink.com 1.10,2013-05-17 04:40:00,
2013-05-17 00:55:00,64.1,61.0,29.95,SE,140,0.0,0.0,88,0.00,,,0.00,weatherlink.com 1.10,2013-05-17 04:55:00,
2013-05-17 01:10:00,63.4,61.0,29.95,SE,140,0.0,0.0,90,0.00,,,0.00,weatherlink.com 1.10,2013-05-17 05:10:00,
2013-05-17 01:25:00,62.9,60.0,29.95,SE,140,0.0,0.0,91,0.00,,,0.00,weatherlink.com 1.10,2013-05-17 05:25:00,
2013-05-17 01:40:00,62.4,60.0,29.95,SE,140,0.0,0.0,91,0.00,,,0.00,weatherlink.com 1.10,2013-05-17 05:40:00,
2013-05-17 01:55:00,62.0,60.0,29.95,SE,140,0.0,0.0,92,0.00,,,0.00,weatherlink.com 1.10,2013-05-17 05:55:00,
2013-05-17 02:10:00,61.8,60.0,29.95,SE,140,0.0,0.0,93,0.00,,,0.00,weatherlink.com 1.10,2013-05-17 06:10:00,
2013-05-17 02:25:00,61.6,60.0,29.95,SE,140,0.0,0.0,93,0.00,,,0.00,weatherlink.com 1.10,2013-05-17 06:25:00,
2013-05-17 02:40:00,61.3,59.0,29.95,SE,140,0.0,0.0,93,0.00,,,0.00,weatherlink.com 1.10,2013-05-17 06:40:00,
2013-05-17 02:55:00,61.1,59.0,29.95,SE,140,0.0,0.0,93,0.00,,,0.00,weatherlink.com 1.10,2013-05-17 06:55:00,
2013-05-17 03:10:00,60.7,59.0,29.95,SE,140,0.0,0.0,93,0.00,,,0.00,weatherlink.com 1.10,2013-05-17 07:10:00,
2013-05-17 03:25:00,60.4,58.0,29.96,SE,140,0.0,0.0,93,0.00,,,0.00,weatherlink.com 1.10,2013-05-17 07:25:00,
2013-05-17 03:55:00,59.9,58.0,29.96,SE,140,0.0,0.0,94,0.00,,,0.00,weatherlink.com 1.10,2013-05-17 07:55:00,
2013-05-17 04:10:00,59.7,58.0,29.96,SE,140,0.0,0.0,94,0.00,,,0.00,weatherlink.com 1.10,2013-05-17 08:10:00,
2013-05-17 04:25:00,59.5,58.0,29.97,SE,140,0.0,0.0,94,0.00,,,0.00,weatherlink.com 1.10,2013-05-17 08:25:00,
2013-05-17 04:40:00,59.3,58.0,29.97,SE,140,0.0,0.0,94,0.00,,,0.00,weatherlink.com 1.10,2013-05-17 08:40:00,
2013-05-17 04:56:00,59.0,57.0,29.97,SE,140,0.0,0.0,94,0.00,,,0.00,weatherlink.com 1.10,2013-05-17 08:56:00,
2013-05-17 05:11:00,59.0,58.0,29.97,SE,140,0.0,0.0,95,0.00,,,0.00,weatherlink.com 1.10,2013-05-17 09:11:00,
2013-05-17 05:26:00,59.0,58.0,29.98,SE,140,0.0,0.0,95,0.00,,,0.00,weatherlink.com 1.10,2013-05-17 09:26:00,
2013-05-17 05:41:00,59.0,58.0,29.98,SE,140,0.0,0.0,95,0.00,,,0.00,weatherlink.com 1.10,2013-05-17 09:41:00,
2013-05-17 05:56:00,59.1,58.0,29.98,SE,140,0.0,0.0,95,0.00,,,0.00,weatherlink.com 1.10,2013-05-17 09:56:00,
2013-05-17 06:11:00,59.3,58.0,29.99,SE,140,0.0,0.0,95,0.00,,,0.00,weatherlink.com 1.10,2013-05-17 10:11:00,
2013-05-17 06:26:00,59.5,58.0,29.99,SE,140,0.0,0.0,95,0.00,,,0.00,weatherlink.com 1.10,2013-05-17 10:26:00,
2013-05-17 06:56:00,60.2,59.0,30.00,SE,140,0.0,0.0,95,0.00,,,0.00,weatherlink.com 1.10,2013-05-17 10:56:00,
2013-05-17 07:11:00,60.3,59.0,30.00,SE,140,0.0,0.0,96,0.00,,,0.00,weatherlink.com 1.10,2013-05-17 11:11:00,
2013-05-17 07:26:00,60.5,59.0,29.94,SE,140,0.0,0.0,96,0.00,,,0.00,weatherlink.com 1.10,2013-05-17 11:26:00,
2013-05-17 07:56:00,61.4,60.0,29.30,SE,140,0.0,0.0,95,0.00,,,0.00,weatherlink.com 1.10,2013-05-17 11:56:00,
2013-05-17 08:11:00,62.0,61.0,29.31,SE,140,0.0,0.0,95,0.00,,,0.00,weatherlink.com 1.10,2013-05-17 12:11:00,
2013-05-17 08:26:00,62.5,61.0,29.66,SE,140,0.0,0.0,95,0.00,,,0.00,weatherlink.com 1.10,2013-05-17 12:26:00,
2013-05-17 08:41:00,63.1,61.0,29.84,SE,134,0.0,0.0,94,0.00,,,0.00,weatherlink.com 1.10,2013-05-17 12:41:00,
2013-05-17 08:56:00,63.9,62.0,30.01,SE,134,0.0,0.0,94,0.00,,,0.00,weatherlink.com 1.10,2013-05-17 12:56:00,
2013-05-17 09:11:00,65.0,63.0,30.01,SE,134,0.0,0.0,92,0.00,,,0.00,weatherlink.com 1.10,2013-05-17 13:11:00,
2013-05-17 09:26:00,65.8,63.0,30.01,SE,134,0.0,1.0,89,0.00,,,0.00,weatherlink.com 1.10,2013-05-17 13:26:00,
2013-05-17 09:41:00,66.3,63.0,30.02,SE,134,0.0,1.0,89,0.00,,,0.00,weatherlink.com 1.10,2013-05-17 13:41:00,
2013-05-17 09:56:00,66.8,64.0,29.32,SE,134,0.0,0.0,89,0.00,,,0.00,weatherlink.com 1.10,2013-05-17 13:56:00,
2013-05-17 10:11:00,67.4,64.0,29.67,SSW,197,0.0,1.0,88,0.00,,,0.00,weatherlink.com 1.10,2013-05-17 14:11:00,
2013-05-17 10:26:00,68.1,64.0,30.02,SSW,197,0.0,1.0,86,0.00,,,0.00,weatherlink.com 1.10,2013-05-17 14:26:00,
2013-05-17 10:41:00,70.3,65.0,30.02,SSW,196,0.0,1.0,82,0.00,,,0.00,weatherlink.com 1.10,2013-05-17 14:41:00,
2013-05-17 10:56:00,72.4,64.0,29.97,SSW,196,0.0,1.0,76,0.00,,,0.00,weatherlink.com 1.10,2013-05-17 14:56:00,
2013-05-17 11:11:00,72.0,64.0,29.92,SSW,196,0.0,1.0,76,0.00,,,0.00,weatherlink.com 1.10,2013-05-17 15:11:00,
2013-05-17 11:26:00,72.1,64.0,29.92,SSW,194,0.0,2.0,75,0.00,,,0.00,weatherlink.com 1.10,2013-05-17 15:26:00,
2013-05-17 11:41:00,73.9,64.0,30.03,SSW,192,1.0,1.0,71,0.00,,,0.00,weatherlink.com 1.10,2013-05-17 15:41:00,
2013-05-17 11:56:00,74.5,65.0,30.02,South,190,0.0,0.0,73,0.00,,,0.00,weatherlink.com 1.10,2013-05-17 15:56:00,
2013-05-17 12:11:00,74.5,65.0,30.03,WNW,283,0.0,1.0,73,0.00,,,0.00,weatherlink.com 1.10,2013-05-17 16:11:00,
2013-05-17 12:26:00,75.2,66.0,30.02,West,275,0.0,1.0,72,0.00,,,0.00,weatherlink.com 1.10,2013-05-17 16:26:00,
2013-05-17 12:41:00,74.9,65.0,30.02,SW,221,0.0,2.0,71,0.00,,,0.00,weatherlink.com 1.10,2013-05-17 16:41:00,
2013-05-17 12:56:00,75.0,65.0,30.02,SSW,207,0.0,1.0,72,0.00,,,0.00,weatherlink.com 1.10,2013-05-17 16:56:00,
2013-05-17 13:11:00,76.3,66.0,30.02,SE,134,1.0,4.0,71,0.00,,,0.00,weatherlink.com 1.10,2013-05-17 17:11:00,
2013-05-17 13:26:00,77.3,65.0,30.00,SE,145,3.0,3.0,67,0.00,,,0.00,weatherlink.com 1.10,2013-05-17 17:26:00,
2013-05-17 13:41:00,77.6,67.0,30.00,ESE,121,0.0,5.0,69,0.00,,,0.00,weatherlink.com 1.10,2013-05-17 17:41:00,
2013-05-17 13:56:00,78.1,66.0,30.00,SSE,154,0.0,4.0,67,0.00,,,0.00,weatherlink.com 1.10,2013-05-17 17:56:00,
2013-05-17 14:11:00,78.7,66.0,29.99,SE,138,0.0,2.0,66,0.00,,,0.00,weatherlink.com 1.10,2013-05-17 18:11:00,
2013-05-17 14:26:00,78.7,65.0,29.99,SSE,148,0.0,4.0,64,0.00,,,0.00,weatherlink.com 1.10,2013-05-17 18:26:00,
2013-05-17 14:41:00,78.6,67.0,29.98,SE,138,0.0,4.0,67,0.00,,,0.00,weatherlink.com 1.10,2013-05-17 18:41:00,
2013-05-17 14:56:00,78.8,67.0,29.98,ESE,106,1.0,1.0,68,0.00,,,0.00,weatherlink.com 1.10,2013-05-17 18:56:00,
2013-05-17 15:11:00,79.8,67.0,29.75,ESE,107,0.0,1.0,65,0.00,,,0.00,weatherlink.com 1.10,2013-05-17 19:11:00,
2013-05-17 15:26:00,79.1,67.0,29.75,NNW,327,1.0,3.0,67,0.00,,,0.00,weatherlink.com 1.10,2013-05-17 19:26:00,
2013-05-17 15:41:00,78.7,68.0,29.91,NW,319,0.0,0.0,69,0.00,,,0.00,weatherlink.com 1.10,2013-05-17 19:41:00,
2013-05-17 15:56:00,79.6,67.0,29.91,SSE,156,0.0,2.0,66,0.00,,,0.00,weatherlink.com 1.10,2013-05-17 19:56:00,
2013-05-17 16:11:00,80.3,67.0,29.91,East,96,0.0,4.0,63,0.00,,,0.00,weatherlink.com 1.10,2013-05-17 20:11:00,
2013-05-17 16:27:00,79.5,66.0,28.73,East,84,1.0,3.0,64,0.00,,,0.00,weatherlink.com 1.10,2013-05-17 20:27:00,
2013-05-17 16:42:00,79.0,65.0,28.73,SE,131,0.0,4.0,63,0.00,,,0.00,weatherlink.com 1.10,2013-05-17 20:42:00,
2013-05-17 16:57:00,79.0,66.0,28.73,SSE,150,1.0,3.0,64,0.00,,,0.00,weatherlink.com 1.10,2013-05-17 20:57:00,
2013-05-17 17:12:00,78.9,66.0,28.63,SSE,149,0.0,2.0,64,0.00,,,0.00,weatherlink.com 1.10,2013-05-17 21:12:00,
2013-05-17 17:27:00,79.3,66.0,28.11,SSE,165,0.0,3.0,64,0.00,,,0.00,weatherlink.com 1.10,2013-05-17 21:27:00,
2013-05-17 17:42:00,79.2,66.0,29.94,SSE,153,0.0,3.0,64,0.00,,,0.00,weatherlink.com 1.10,2013-05-17 21:42:00,
2013-05-17 17:57:00,78.3,66.0,29.94,WSW,253,0.0,1.0,65,0.00,,,0.00,weatherlink.com 1.10,2013-05-17 21:57:00,
2013-05-17 18:12:00,77.6,66.0,29.94,South,173,0.0,1.0,67,0.00,,,0.00,weatherlink.com 1.10,2013-05-17 22:12:00,
2013-05-17 18:27:00,77.2,66.0,29.59,South,173,0.0,0.0,69,0.00,,,0.00,weatherlink.com 1.10,2013-05-17 22:27:00,
2013-05-17 18:42:00,76.7,66.0,29.94,South,173,0.0,0.0,70,0.00,,,0.00,weatherlink.com 1.10,2013-05-17 22:42:00,
2013-05-17 18:57:00,76.2,68.0,29.94,SSE,164,0.0,0.0,75,0.00,,,0.00,weatherlink.com 1.10,2013-05-17 22:57:00,
2013-05-17 19:12:00,76.0,68.0,29.94,SSE,164,0.0,0.0,75,0.00,,,0.00,weatherlink.com 1.10,2013-05-17 23:12:00,
2013-05-17 19:27:00,75.3,68.0,29.95,ENE,63,0.0,0.0,78,0.00,,,0.00,weatherlink.com 1.10,2013-05-17 23:27:00,
2013-05-17 19:42:00,74.2,68.0,29.95,West,275,0.0,0.0,81,0.00,,,0.00,weatherlink.com 1.10,2013-05-17 23:42:00,
2013-05-17 19:57:00,73.3,68.0,29.95,West,275,0.0,0.0,83,0.00,,,0.00,weatherlink.com 1.10,2013-05-17 23:57:00,
2013-05-17 20:12:00,72.6,68.0,29.95,West,275,0.0,0.0,84,0.00,,,0.00,weatherlink.com 1.10,2013-05-18 00:12:00,
2013-05-17 20:27:00,71.9,68.0,29.94,West,275,0.0,0.0,87,0.00,,,0.00,weatherlink.com 1.10,2013-05-18 00:27:00,
2013-05-17 20:57:00,70.4,67.0,29.96,West,275,0.0,1.0,89,0.00,,,0.00,weatherlink.com 1.10,2013-05-18 00:57:00,
2013-05-17 21:12:00,69.7,67.0,29.96,West,275,0.0,1.0,90,0.00,,,0.00,weatherlink.com 1.10,2013-05-18 01:12:00,
2013-05-17 21:27:00,69.1,66.0,29.97,West,275,0.0,0.0,91,0.00,,,0.00,weatherlink.com 1.10,2013-05-18 01:27:00,
2013-05-17 21:42:00,68.8,66.0,29.97,West,275,0.0,0.0,91,0.00,,,0.00,weatherlink.com 1.10,2013-05-18 01:42:00,
2013-05-17 21:57:00,68.6,66.0,29.98,West,275,0.0,0.0,92,0.00,,,0.00,weatherlink.com 1.10,2013-05-18 01:57:00,
2013-05-17 22:12:00,68.4,66.0,29.98,West,272,0.0,1.0,93,0.01,,,0.01,weatherlink.com 1.10,2013-05-18 02:12:00,
2013-05-17 22:27:00,67.7,65.0,29.98,West,272,0.0,0.0,92,0.03,,,0.03,weatherlink.com 1.10,2013-05-18 02:27:00,
2013-05-17 22:42:00,67.3,65.0,29.98,West,272,0.0,0.0,93,0.05,,,0.05,weatherlink.com 1.10,2013-05-18 02:42:00,
2013-05-17 22:57:00,67.0,65.0,29.99,West,272,0.0,0.0,93,0.06,,,0.06,weatherlink.com 1.10,2013-05-18 02:57:00,
2013-05-17 23:12:00,66.4,64.0,29.99,West,272,0.0,0.0,93,0.05,,,0.06,weatherlink.com 1.10,2013-05-18 03:12:00,
2013-05-17 23:42:00,66.0,64.0,29.94,West,272,0.0,0.0,94,0.04,,,0.09,weatherlink.com 1.10,2013-05-18 03:42:00,
2013-05-17 23:57:00,65.8,64.0,30.00,West,272,0.0,0.0,94,0.03,,,0.09,weatherlink.com 1.10,2013-05-18 03:57:00,